Marble, NC

8:23 PM EST on February 27, 2017 (GMT -0500)
Andrews

Weather History for KRHP - February, 2014

Change the Weather History Date:

Monday, February 10, 2014

  Actual Average (KMMI) Record (KMMI)
Temperature  
Mean Temperature 34 °F -  
Max Temperature 38 °F 47 °F 57 °F (2017)
Min Temperature 29 °F 23 °F 17 °F (2016)
Degree Days  
Heating Degree Days 32    
Moisture  
Dew Point 33 °F    
Average Humidity 93    
Maximum Humidity 99    
Minimum Humidity 84    
Precipitation  
Precipitation 0.05 in - - ()
Sea Level Pressure  
Sea Level Pressure 30.09 in    
Wind  
Wind Speed 1 mph (West)    
Max Wind Speed 7 mph    
Max Gust Speed -    
Visibility 9 miles    
Events Rain    
Averages and records for this station are not official NWS values.
T = Trace of Precipitation, MM = Missing Value Source: NWS Daily Summary

Daily Weather History Graph

Daily Weather History Graph

Search for Another Location

Airport or City:

Trip Planner

Search our weather history database for the weather conditions in past years. The results will help you decide how hot, cold, wet, or windy it might be!

Date:

Astronomy

Feb. 10, 2014 Rise Set
Actual Time 7:26 AM EST 6:13 PM EST
Civil Twilight 7:00 AM EST 6:39 PM EST
Nautical Twilight 6:30 AM EST 7:09 PM EST
Astronomical Twilight 6:01 AM EST 7:38 PM EST
Moon 2:44 PM EST (2/10) 4:15 AM EST (2/10)
Length of Visible Light 11h 38m
Length of Day
10h 46m
Waxing Gibbous, 84% of the Moon is Illuminated
Feb 10
Waxing Gibbous
Feb 14
Full
Feb 22
Last Quarter
Mar 1
New
Mar 8
First Quarter

Hourly Weather History & Observations

Time (EST) Temp. Windchill Dew Point Humidity Pressure Visibility Wind Dir Wind Speed Gust Speed Precip Events Conditions
12:15 AM 30.7 °F - 30.0 °F 97% 30.06 in 10.0 mi Calm Calm - N/A   Clear
12:35 AM 30.6 °F - 29.7 °F 96% 30.05 in 7.0 mi Calm Calm - N/A   Clear
12:55 AM 29.5 °F - 28.6 °F 96% 30.06 in 7.0 mi Calm Calm - N/A   Clear
1:15 AM 30.4 °F - 29.8 °F 98% 30.07 in 7.0 mi Calm Calm - N/A   Mostly Cloudy
1:35 AM 31.6 °F - 30.7 °F 96% 30.08 in 10.0 mi Calm Calm - N/A   Overcast
1:55 AM 32.0 °F - 31.1 °F 96% 30.08 in 7.0 mi Calm Calm - N/A   Overcast
2:15 AM 32.4 °F - 31.6 °F 97% 30.08 in 10.0 mi Calm Calm - N/A   Overcast
2:35 AM 32.5 °F - 31.8 °F 97% 30.08 in 7.0 mi Calm Calm - N/A   Overcast
2:55 AM 33.3 °F - 32.0 °F 95% 30.09 in 10.0 mi Calm Calm - N/A   Overcast
3:15 AM 33.4 °F - 32.0 °F 94% 30.08 in 7.0 mi Calm Calm - N/A   Overcast
3:35 AM 32.5 °F 29.3 °F 31.8 °F 97% 30.07 in 7.0 mi SSE 3.5 mph - N/A   Mostly Cloudy
3:55 AM 32.7 °F - 32.0 °F 97% 30.06 in 10.0 mi Calm Calm - N/A   Scattered Clouds
4:15 AM 32.2 °F - 31.8 °F 99% 30.06 in 7.0 mi Calm Calm - N/A   Mostly Cloudy
4:35 AM 33.1 °F - 32.0 °F 96% 30.05 in 7.0 mi Calm Calm - N/A   Overcast
4:55 AM 33.8 °F 29.6 °F 32.4 °F 94% 30.06 in 7.0 mi West 4.6 mph - N/A   Overcast
5:15 AM 33.8 °F - 32.5 °F 95% 30.07 in 7.0 mi Calm Calm - N/A   Overcast
5:35 AM 34.2 °F - 32.4 °F 93% 30.07 in 10.0 mi Calm Calm - N/A   Overcast
5:55 AM 34.5 °F - 32.7 °F 93% 30.07 in 10.0 mi Calm Calm - N/A   Overcast
6:15 AM 34.7 °F - 32.9 °F 93% 30.07 in 10.0 mi Calm Calm - N/A   Overcast
6:35 AM 34.7 °F - 32.9 °F 93% 30.06 in 10.0 mi Calm Calm - N/A   Overcast
6:55 AM 34.7 °F - 33.1 °F 94% 30.07 in 10.0 mi Calm Calm - N/A   Overcast
7:15 AM 34.9 °F - 32.9 °F 92% 30.06 in 10.0 mi Calm Calm - N/A   Overcast
7:35 AM 34.7 °F - 33.4 °F 95% 30.07 in 10.0 mi Calm Calm - N/A   Overcast
7:55 AM 35.1 °F - 33.3 °F 93% 30.07 in 7.0 mi Calm Calm - N/A   Overcast
8:15 AM 35.4 °F - 33.6 °F 93% 30.08 in 7.0 mi Calm Calm - N/A   Overcast
8:35 AM 36.0 °F - 34.2 °F 93% 30.08 in 7.0 mi Calm Calm - N/A   Overcast
8:55 AM 36.1 °F - 34.2 °F 93% 30.09 in 10.0 mi Calm Calm - N/A   Overcast
9:15 AM 36.5 °F - 34.3 °F 92% 30.10 in 10.0 mi Calm Calm - N/A   Overcast
9:35 AM 36.9 °F 33.1 °F 34.9 °F 93% 30.10 in 7.0 mi ENE 4.6 mph - N/A   Overcast
9:55 AM 37.0 °F 34.5 °F 34.9 °F 92% 30.10 in 10.0 mi East 3.5 mph - N/A   Overcast
10:15 AM 37.4 °F - 34.7 °F 90% 30.11 in 10.0 mi Calm Calm - N/A   Light Drizzle
10:35 AM 37.6 °F - 35.2 °F 91% 30.11 in 7.0 mi Calm Calm - N/A   Drizzle
10:55 AM 37.9 °F - 35.6 °F 91% 30.11 in 7.0 mi Calm Calm - N/A Rain Light Rain
11:15 AM 37.9 °F - 35.4 °F 91% 30.11 in 10.0 mi Calm Calm - N/A   Light Drizzle
11:35 AM 38.3 °F 35.9 °F 35.8 °F 91% 30.11 in 7.0 mi West 3.5 mph - 0.01 in Rain Light Rain
11:55 AM 38.5 °F 34.1 °F 36.5 °F 93% 30.11 in 7.0 mi West 5.8 mph - 0.01 in Rain Light Rain
12:15 PM 38.1 °F 32.9 °F 36.3 °F 93% 30.10 in 10.0 mi West 6.9 mph - N/A Rain Rain
12:35 PM 37.2 °F 31.9 °F 35.8 °F 95% 30.10 in 7.0 mi West 6.9 mph - 0.01 in Rain Light Rain
12:55 PM 36.5 °F 31.8 °F 35.4 °F 96% 30.09 in 7.0 mi West 5.8 mph - 0.02 in Rain Light Rain
1:15 PM 36.1 °F 32.3 °F 34.5 °F 94% 30.08 in 7.0 mi West 4.6 mph - 0.01 in Rain Light Rain
1:35 PM 35.8 °F 33.0 °F 34.3 °F 94% 30.07 in 10.0 mi West 3.5 mph - 0.02 in Rain Rain
1:55 PM 35.8 °F 33.0 °F 34.5 °F 95% 30.06 in 10.0 mi WNW 3.5 mph - 0.02 in Rain Light Rain
2:15 PM 36.5 °F 32.7 °F 34.9 °F 94% 30.07 in 10.0 mi West 4.6 mph - N/A   Overcast
2:35 PM 36.5 °F 32.7 °F 35.1 °F 95% 30.07 in 10.0 mi WSW 4.6 mph - N/A   Overcast
2:55 PM 36.9 °F 34.3 °F 35.4 °F 95% 30.06 in 10.0 mi West 3.5 mph - N/A   Overcast
3:15 PM 36.9 °F - 35.1 °F 93% 30.06 in 10.0 mi Calm Calm - N/A   Overcast
3:35 PM 37.0 °F 34.5 °F 35.2 °F 93% 30.06 in 10.0 mi West 3.5 mph - N/A   Overcast
3:55 PM 36.9 °F 34.3 °F 35.1 °F 93% 30.06 in 10.0 mi West 3.5 mph - N/A   Overcast
4:15 PM 37.2 °F 32.6 °F 35.6 °F 94% 30.07 in 10.0 mi WSW 5.8 mph - N/A   Overcast
4:35 PM 36.9 °F - 32.9 °F 86% 30.07 in 10.0 mi Calm Calm - N/A   Overcast
4:55 PM 36.9 °F 33.1 °F 34.0 °F 89% 30.08 in 10.0 mi West 4.6 mph - N/A   Overcast
5:15 PM 36.9 °F 32.2 °F 35.4 °F 95% 30.08 in 10.0 mi WSW 5.8 mph - N/A   Overcast
5:35 PM 36.5 °F 33.9 °F 32.4 °F 85% 30.09 in 10.0 mi NNW 3.5 mph - N/A   Overcast
5:55 PM 36.1 °F 33.5 °F 32.0 °F 85% 30.10 in 10.0 mi West 3.5 mph - N/A   Overcast
6:15 PM 36.1 °F - 33.4 °F 90% 30.10 in 10.0 mi Calm Calm - N/A   Overcast
6:35 PM 36.0 °F 30.3 °F 31.8 °F 85% 30.11 in 10.0 mi NNW 6.9 mph - N/A   Overcast
6:55 PM 35.4 °F 30.5 °F 31.1 °F 84% 30.12 in 10.0 mi NNW 5.8 mph - N/A   Overcast
7:15 PM 35.2 °F - 31.6 °F 87% 30.13 in 10.0 mi Calm Calm - N/A   Overcast
7:35 PM 35.1 °F - 32.0 °F 89% 30.13 in 10.0 mi Calm Calm - N/A   Overcast
7:55 PM 35.1 °F - 31.6 °F 87% 30.13 in 10.0 mi Calm Calm - N/A   Overcast
8:15 PM 35.1 °F - 32.0 °F 89% 30.13 in 10.0 mi Calm Calm - N/A   Overcast
8:35 PM 35.1 °F - 32.5 °F 91% 30.13 in 10.0 mi Calm Calm - N/A   Overcast
8:55 PM 34.9 °F - 32.7 °F 92% 30.13 in 10.0 mi Calm Calm - N/A   Overcast
9:15 PM 34.7 °F - 32.2 °F 91% 30.13 in 10.0 mi Calm Calm - N/A   Overcast
9:35 PM 34.7 °F - 32.4 °F 91% 30.14 in 10.0 mi Calm Calm - N/A   Overcast
9:55 PM 34.7 °F - 32.9 °F 93% 30.14 in 10.0 mi Calm Calm - N/A   Overcast
10:15 PM 34.7 °F - 32.9 °F 93% 30.14 in 10.0 mi Calm Calm - N/A   Overcast
10:35 PM 34.9 °F - 32.2 °F 90% 30.14 in 10.0 mi Calm Calm - N/A   Overcast
10:55 PM 34.2 °F - 32.9 °F 95% 30.14 in 7.0 mi Calm Calm - N/A   Overcast
11:15 PM 34.2 °F - 32.9 °F 95% 30.14 in 10.0 mi Calm Calm - N/A   Overcast
11:35 PM 34.3 °F - 32.7 °F 94% 30.14 in 10.0 mi Calm Calm - N/A   Overcast
11:55 PM 34.2 °F 31.2 °F 32.9 °F 95% 30.15 in 10.0 mi WSW 3.5 mph - N/A   Overcast